DW4005 Mahon ES current weather conditions

sailwx.info

Wind from 278 at 5 knots gusting 10

Air temperature 17.8° C
Dewpoint 6.9° C

Last reported at 2015-Apr-27 19:53 UTC.
Time now 2015-Apr-27 20:42 UTC

Location: N 39°56' E 004°08'.
View on Google Maps.

See reports from other nearby stations

  
Tides and Currents Weather Stations Pressure Air Temp Water Temp Dewpoint Dewpoint Depression Visibility Wind Speed Wind Dir Waves Ship Positions
date/time (UTC)wind fromknots sea level pressurealtimeterstation pressurevisibilityair tempwater tempwave heightnotes
2015-Apr-27 19:53 278 5 gusting 10 17.8
2015-Apr-27 19:39 268 3 gusting 10 18.3
2015-Apr-27 19:23 265 6 gusting 10 17.8
2015-Apr-27 19:08 277 2 gusting 11 17.8
2015-Apr-27 18:53 290 5 gusting 9 17.8
2015-Apr-27 18:38 275 1 gusting 9 18.3
2015-Apr-27 18:22 281 3 gusting 10 18.3
2015-Apr-27 18:07 274 4 gusting 12 18.9
2015-Apr-27 17:52 289 5 gusting 12 19.4
2015-Apr-27 17:37 274 4 gusting 12 19.4
2015-Apr-27 17:22 251 2 gusting 12 19.4
2015-Apr-27 17:07 284 4 gusting 12 20.0
2015-Apr-27 16:52 288 2 gusting 10 20.0
2015-Apr-27 16:37 287 4 gusting 16 20.0
2015-Apr-27 16:22 295 4 gusting 12 20.0
2015-Apr-27 16:07 272 4 gusting 13 18.9
2015-Apr-27 15:52 286 3 gusting 10 18.9
2015-Apr-27 15:37 269 6 gusting 18 18.9
2015-Apr-27 15:22 294 6 gusting 13 19.4
2015-Apr-27 15:07 317 6 gusting 16 18.9
2015-Apr-27 14:52 324 8 gusting 16 18.9
2015-Apr-27 14:37 316 6 gusting 17 18.9
2015-Apr-27 14:22 331 6 gusting 17 18.3
2015-Apr-27 14:07 309 6 gusting 20 18.9
2015-Apr-27 13:52 229 6 gusting 15 18.9
2015-Apr-27 13:37 324 5 gusting 17 17.8
2015-Apr-27 13:25 332 6 gusting 15 18.3
2015-Apr-27 13:07 325 4 gusting 11 17.8
2015-Apr-27 12:52 317 5 gusting 11 18.3
2015-Apr-27 12:37 302 6 gusting 15 18.9
2015-Apr-27 12:22 317 5 gusting 15 18.3
2015-Apr-27 12:07 295 5 gusting 11 18.9
2015-Apr-27 11:52 347 4 gusting 11 18.3
2015-Apr-27 11:37 273 3 gusting 13 18.3
2015-Apr-27 11:22 311 6 gusting 16 18.3
2015-Apr-27 11:07 348 5 gusting 12 18.9
2015-Apr-27 10:52 295 4 gusting 17 19.4
2015-Apr-27 10:37 326 6 gusting 13 19.4
2015-Apr-27 10:22 309 6 gusting 17 20.0
2015-Apr-27 10:07 309 4 gusting 13 20.0
2015-Apr-27 09:52 275 6 gusting 19 20.0
2015-Apr-27 09:37 327 7 gusting 18 20.0
2015-Apr-27 09:22 316 5 gusting 10 19.4
2015-Apr-27 09:07 269 5 gusting 10 18.9
2015-Apr-27 08:52 314 4 gusting 13 17.8
2015-Apr-27 08:37 291 4 gusting 12 18.3
2015-Apr-27 08:22 264 5 gusting 10 18.9
2015-Apr-27 08:07 316 4 gusting 9 18.3
2015-Apr-27 07:52 259 4 gusting 10 18.9
2015-Apr-27 07:37 302 1 gusting 8 18.9
2015-Apr-27 07:22 261 3 gusting 8 18.3
2015-Apr-27 07:07 264 3 gusting 13 17.8
2015-Apr-27 06:52 289 3 gusting 13 17.8
2015-Apr-27 06:37 282 6 gusting 15 17.2
2015-Apr-27 06:22 250 4 gusting 12 17.2
2015-Apr-27 06:09 265 4 gusting 11 17.2
2015-Apr-27 05:52 190 3 gusting 8 16.7
2015-Apr-27 05:37 261 4 gusting 13 16.7
2015-Apr-27 05:22 259 5 gusting 13 16.7
2015-Apr-27 05:07 271 5 gusting 15 16.7
2015-Apr-27 04:52 335 4 gusting 10 16.7
2015-Apr-27 04:37 346 3 gusting 13 16.1
2015-Apr-27 04:22 283 4 gusting 12 16.7
2015-Apr-27 04:06 268 4 gusting 9 16.7
2015-Apr-27 03:51 204 1 gusting 7 16.7
2015-Apr-27 03:36 283 1 gusting 10 16.7
2015-Apr-27 03:21 094 2 gusting 7 16.7
2015-Apr-27 03:06 119 2 gusting 6 16.7
2015-Apr-27 02:51 282 1 gusting 7 16.7
2015-Apr-27 02:36 279 3 gusting 9 16.7
2015-Apr-27 02:21 296 4 gusting 11 16.1
2015-Apr-27 02:06 288 0 gusting 6 16.1
2015-Apr-27 01:51 310 16.7
2015-Apr-27 01:36 310 0 gusting 1 16.7
2015-Apr-27 01:21 310 0 gusting 6 17.2
2015-Apr-27 01:06 299 3 gusting 10 17.2
2015-Apr-27 00:51 276 3 gusting 13 17.8
2015-Apr-27 00:36 273 3 gusting 11 18.3
2015-Apr-27 00:21 278 4 gusting 10 18.3
2015-Apr-27 00:06 271 4 gusting 9 18.3
2015-Apr-26 23:51 192 1 gusting 7 17.8
2015-Apr-26 23:36 288 0 gusting 6 17.8
2015-Apr-26 23:21 280 1 gusting 7 17.8
2015-Apr-26 23:06 269 0 gusting 10 17.8
2015-Apr-26 22:52 304 3 gusting 11 18.3
2015-Apr-26 22:36 059 4 gusting 13 18.3
2015-Apr-26 22:21 044 3 gusting 9 17.8
2015-Apr-26 22:06 351 1 gusting 6 17.8
2015-Apr-26 21:51 154 4 gusting 13 17.8
2015-Apr-26 21:36 160 3 gusting 12 17.8
2015-Apr-26 21:21 084 1 gusting 20 18.3
2015-Apr-26 21:06 169 5 gusting 13 18.3
2015-Apr-26 20:51 176 4 gusting 15 18.3
2015-Apr-26 20:36 169 6 gusting 20 18.3
2015-Apr-26 20:21 144 6 gusting 15 18.3
2015-Apr-26 20:06 163 8 gusting 19 18.3
2015-Apr-26 19:51 205 6 gusting 24 18.3
2015-Apr-26 19:36 143 1 gusting 7 18.3
2015-Apr-26 19:21 206 0 gusting 8 18.3
2015-Apr-26 19:06 258 18.3
2015-Apr-26 18:51 168 3 gusting 7 18.3
2015-Apr-26 18:36 155 3 gusting 11 18.3
2015-Apr-26 18:21 196 5 gusting 12 18.9
2015-Apr-26 18:06 188 0 gusting 6 18.9
2015-Apr-26 17:51 205 3 gusting 9 19.4
2015-Apr-26 17:36 167 2 gusting 8 19.4
2015-Apr-26 17:21 187 3 gusting 10 19.4
2015-Apr-26 17:06 300 1 gusting 7 20.0
2015-Apr-26 16:51 301 3 gusting 10 19.4
2015-Apr-26 16:36 132 4 gusting 9 20.0
2015-Apr-26 16:21 152 3 gusting 17 20.0
2015-Apr-26 16:06 018 1 gusting 9 20.6
2015-Apr-26 15:51 162 6 gusting 12 19.4
2015-Apr-26 15:37 111 4 gusting 11 20.0
2015-Apr-26 15:21 196 3 gusting 13 19.4
2015-Apr-26 15:06 065 4 gusting 11 19.4
2015-Apr-26 14:51 186 2 gusting 9 20.0
2015-Apr-26 14:36 173 5 gusting 13 19.4
2015-Apr-26 14:21 170 6 gusting 16 19.4
2015-Apr-26 14:06 179 5 gusting 17 20.6
2015-Apr-26 13:51 180 5 gusting 16 20.0
2015-Apr-26 13:36 180 6 gusting 13 20.0
2015-Apr-26 13:21 200 3 gusting 10 21.1
2015-Apr-26 13:06 173 5 gusting 13 21.1
2015-Apr-26 12:51 163 5 gusting 11 20.6
2015-Apr-26 12:36 198 3 gusting 13 20.6
2015-Apr-26 12:20 197 6 gusting 16 20.6
2015-Apr-26 12:05 162 8 gusting 15 20.0
2015-Apr-26 11:50 176 4 gusting 11 20.6
2015-Apr-26 11:35 177 4 gusting 13 21.1
2015-Apr-26 11:20 192 5 gusting 10 21.7
2015-Apr-26 11:05 190 4 gusting 12 21.1
2015-Apr-26 10:50 208 3 gusting 9 21.1
2015-Apr-26 10:35 195 3 gusting 12 21.1
2015-Apr-26 10:20 180 5 gusting 12 21.1
2015-Apr-26 10:05 198 3 gusting 9 21.1
2015-Apr-26 09:50 176 2 gusting 13 20.6
2015-Apr-26 09:35 131 3 gusting 9 20.0
2015-Apr-26 09:22 122 6 gusting 17 19.4
2015-Apr-26 09:05 195 6 gusting 16 20.0
2015-Apr-26 08:50 195 6 gusting 13 19.4
2015-Apr-26 08:35 134 5 gusting 13 19.4
2015-Apr-26 08:20 149 2 gusting 7 19.4
2015-Apr-26 08:04 159 3 gusting 8 18.9
2015-Apr-26 07:49 166 3 gusting 11 18.9
2015-Apr-26 07:34 151 3 gusting 18 18.9
2015-Apr-26 07:19 179 7 gusting 12 18.9
2015-Apr-26 07:04 153 5 gusting 10 18.9
2015-Apr-26 06:49 169 2 gusting 6 18.9
2015-Apr-26 06:34 157 0 gusting 5 18.3
2015-Apr-26 06:19 154 0 gusting 4 18.3
2015-Apr-26 06:04 154 17.8
2015-Apr-26 05:49 154 0 gusting 8 17.8
2015-Apr-26 05:34 159 3 gusting 12 17.2
2015-Apr-26 05:19 157 4 gusting 9 17.8
2015-Apr-26 05:04 138 17.8
2015-Apr-26 04:49 220 0 gusting 6 17.2
2015-Apr-26 04:34 141 17.8
2015-Apr-26 04:19 160 2 gusting 6 17.8
2015-Apr-26 04:04 149 17.8
2015-Apr-26 03:49 159 4 gusting 13 17.8
2015-Apr-26 03:34 170 6 gusting 13 17.8
2015-Apr-26 03:19 152 0 gusting 6 17.2
2015-Apr-26 03:04 161 17.2
2015-Apr-26 02:49 158 17.2
2015-Apr-26 02:34 171 17.2
2015-Apr-26 02:19 170 0 gusting 3 17.2
2015-Apr-26 02:06 171 0 gusting 7 17.8
2015-Apr-26 01:49 177 17.8
2015-Apr-26 01:34 177 17.8
2015-Apr-26 01:19 176 0 gusting 4 17.8
2015-Apr-26 01:04 176 0 gusting 6 17.8
2015-Apr-26 00:49 175 0 gusting 3 17.8
2015-Apr-26 00:34 176 17.8
2015-Apr-26 00:19 174 0 gusting 5 17.8
2015-Apr-26 00:04 175 17.8
2015-Apr-25 23:49 169 17.8
2015-Apr-25 23:34 179 17.8
2015-Apr-25 23:19 177 1 gusting 3 17.8
2015-Apr-25 23:04 180 0 gusting 6 17.8
2015-Apr-25 22:49 180 1 gusting 5 17.8
2015-Apr-25 22:34 167 2 gusting 9 17.8
2015-Apr-25 22:19 167 17.8
2015-Apr-25 22:04 167 17.8
2015-Apr-25 21:49 167 17.8
2015-Apr-25 21:34 167 17.8
2015-Apr-25 21:19 165 2 gusting 6 17.8
2015-Apr-25 21:04 174 0 gusting 5 17.8
2015-Apr-25 20:49 143 1 gusting 6 17.8
2015-Apr-25 20:34 169 17.8
2015-Apr-25 20:18 184 1 gusting 11 17.8
2015-Apr-25 20:03 153 4 gusting 8 17.8